Location: Armidale
(30.5016°S, 151.6662°E)
Time: 18:01:07
(UTC+10:00)

Hubble Space Telescope - Visible Passes

Search period start: 26 June 2022 00:00
Search period end: 06 July 2022 00:00
Orbit: 532 x 536 km, 28.5° (Epoch: 25 June)

Date Brightness Start Highest point End Pass type
(mag) Time Alt. Az. Time Alt. Az. Time Alt. Az.
26 Jun 2.2 04:44:45 32° NNE 04:44:45 32° NNE 04:48:26 10° E visible
26 Jun 1.2 06:21:30 10° WNW 06:25:37 62° N 06:29:42 10° E visible
27 Jun 2.4 04:33:49 31° NE 04:33:49 31° NE 04:36:38 10° E visible
27 Jun 1.1 06:09:35 10° WNW 06:13:42 65° N 06:17:49 10° E visible
28 Jun 2.9 04:22:48 25° ENE 04:22:48 25° ENE 04:24:47 10° E visible
28 Jun 1.0 05:58:04 12° W 06:01:48 67° N 06:05:55 10° E visible
29 Jun 3.4 04:11:42 18° E 04:11:42 18° E 04:12:56 10° E visible
29 Jun 1.0 05:46:58 18° W 05:49:53 67° N 05:54:01 10° E visible
30 Jun 3.9 04:00:33 13° E 04:00:33 13° E 04:01:02 10° E visible
30 Jun 1.0 05:35:48 26° WNW 05:37:58 65° N 05:42:06 10° ENE visible
01 Jul 1.0 05:24:37 36° WNW 05:26:04 62° N 05:30:10 10° ENE visible
02 Jul 1.0 05:13:23 48° NW 05:14:08 57° N 05:18:13 10° ENE visible
03 Jul 1.1 05:02:10 52° NNW 05:02:13 52° N 05:06:14 10° ENE visible
04 Jul 1.7 04:50:56 42° NNE 04:50:56 42° NNE 04:54:15 10° ENE visible
05 Jul 2.4 04:39:43 30° NNE 04:39:43 30° NNE 04:42:12 10° NE visible
05 Jul 3.0 06:16:42 10° WNW 06:19:00 14° NNW 06:21:16 10° N visible
